Cosmos 1656 - Orbit

View from above orbital plane
View from above orbital plane
View from above satellite
View from above satellite

Ground track
Ground track

The orbit data is extracted from the following two-line orbital elements,

1 15755U 85042A   13168.60761495 -.00000048  00000-0 -32635-6 0  5141
2 15755 071.1101 200.0911 0034426 163.0810 197.1473 14.20229840453306
Epoch (UTC): 17 June 2013 14:34:57
Eccentricity: 0.0034426
inclination: 71.1101°
perigee height: 800 km
apogee height: 849 km
right ascension of ascending node: 200.0911°
argument of perigee: 163.0810°
revolutions per day: 14.20229840
mean anomaly at epoch: 197.1473°
orbit number at epoch: 45330

The dashed part of the orbit path shows where the satellite is in the earth's shadow,  

Developed and maintained by Chris Peat, Heavens-Above GmbH. Please read the updated FAQ before sending e-mail. Imprint. DLR